FW4734 Weather Reports


time (UTC)temp
F
wind
direction
speed
knots
gust
knots
rain 1hr
in
rain 24hr
in
rain mn
in
humidity
%
barometer
mb
20260506194952 73 68 0.0 0.0 0.00 0.00 0.00 58 1020.0
20260506194948 73 102 0.0 0.0 0.00 0.00 0.00 55 1019.9
20260506192947 74 69 0.0 0.0 0.00 0.00 0.00 57 1020.0
20260506192446 73 72 0.0 0.0 0.00 0.00 0.00 57 1020.1
20260506190944 73 62 0.0 0.0 0.00 0.00 0.00 58 1020.2
20260506190443 73 119 0.0 0.0 0.00 0.00 0.00 59 1020.3
20260506184938 74 114 0.0 0.0 0.00 0.00 0.00 59 1020.3
20260506183938 73 240 0.0 0.0 0.00 0.00 0.00 60 1020.4
20260506182935 72 110 0.0 0.0 0.00 0.00 0.00 61 1020.6
20260506181936 71 89 0.0 0.0 0.00 0.00 0.00 64 1020.6
20260506180936 71 122 0.0 0.0 0.00 0.00 0.00 65 1020.7
20260506180437 70 172 0.0 0.0 0.00 0.00 0.00 66 1020.6
20260506174934 69 102 0.0 0.0 0.00 0.00 0.00 68 1020.7
20260506173934 68 124 0.0 0.0 0.00 0.00 0.00 68 1020.8
20260506172933 67 117 0.0 0.0 0.00 0.00 0.00 71 1020.8
20260506171932 66 59 0.0 0.0 0.00 0.00 0.00 73 1020.7
20260506170928 65 79 0.0 0.0 0.00 0.00 0.00 74 1020.8
20260506165927 65 60 0.0 0.0 0.00 0.00 0.00 76 1020.9
20260506164926 64 126 0.0 0.0 0.00 0.00 0.00 77 1021.0
20260506163919 63 63 0.0 0.0 0.00 0.00 0.00 79 1021.0
20260506163420 62 122 0.0 0.0 0.00 0.00 0.00 79 1021.0
20260506161919 62 105 0.0 0.0 0.00 0.00 0.00 80 1021.0
20260506160914 61 89 0.0 0.0 0.00 0.00 0.00 80 1021.1
20260506155913 61 85 0.0 0.0 0.00 0.00 0.00 82 1021.1
20260506154914 60 66 0.0 0.0 0.00 0.00 0.00 83 1021.1
20260506153910 59 92 0.0 0.0 0.00 0.00 0.00 83 1021.1
20260506152910 59 77 0.0 0.0 0.00 0.00 0.00 84 1021.2
20260506151907 58 68 0.0 0.0 0.00 0.00 0.00 85 1021.1
20260506150904 58 84 0.0 0.0 0.00 0.00 0.00 86 1021.1
20260506145904 57 104 0.0 0.0 0.00 0.00 0.00 87 1021.0
20260506144902 56 82 0.0 0.0 0.00 0.00 0.00 88 1021.0
20260506143902 55 101 0.0 0.0 0.00 0.00 0.00 89 1020.9
20260506142859 55 70 0.0 0.0 0.00 0.00 0.00 90 1020.9
20260506141900 54 76 0.0 0.0 0.00 0.00 0.00 90 1020.9
20260506141358 53 64 0.0 0.0 0.00 0.00 0.00 90 1020.8
20260506135857 53 86 0.0 0.0 0.00 0.00 0.00 91 1020.8
20260506134853 52 103 0.0 0.0 0.00 0.00 0.00 91 1020.8
20260506133853 52 103 0.0 0.0 0.00 0.00 0.00 91 1020.6
20260506132852 51 84 0.0 0.0 0.00 0.00 0.00 91 1020.4
20260506131853 51 95 0.0 0.0 0.00 0.00 0.00 91 1020.3
20260506130852 51 91 0.0 0.0 0.00 0.00 0.00 91 1020.3
20260506125852 51 100 0.0 0.0 0.00 0.00 0.00 91 1020.3
20260506124852 51 89 0.0 0.0 0.00 0.00 0.00 91 1020.1
20260506123851 51 86 0.0 0.0 0.00 0.00 0.00 91 1020.0
20260506122847 51 86 0.0 0.0 0.00 0.00 0.00 91 1019.8
20260506121847 52 86 0.0 0.0 0.00 0.00 0.00 91 1019.9
20260506121349 52 86 0.0 0.0 0.00 0.00 0.00 91 1019.9
20260506115843 52 86 0.0 0.0 0.00 0.00 0.00 91 1019.7
20260506114844 52 86 0.0 0.0 0.00 0.00 0.00 91 1019.6
20260506113843 52 86 0.0 0.0 0.00 0.00 0.00 91 1019.7
20260506112839 53 96 0.0 0.0 0.00 0.00 0.00 91 1019.5
20260506111839 53 80 0.0 0.0 0.00 0.00 0.00 90 1019.6
20260506110840 53 83 0.0 0.0 0.00 0.00 0.00 90 1019.5
20260506105840 53 92 0.0 0.0 0.00 0.00 0.00 90 1019.5
20260506104837 53 88 0.0 0.0 0.00 0.00 0.00 90 1019.5
20260506103835 53 86 0.0 0.0 0.00 0.00 0.00 90 1019.4
20260506102835 53 95 0.0 0.0 0.00 0.00 0.00 90 1019.3
20260506102334 53 76 0.0 0.0 0.00 0.00 0.00 90 1019.2
20260506100827 53 82 0.0 0.0 0.00 0.00 0.00 89 1019.1
20260506095825 53 84 0.0 0.0 0.00 0.00 0.00 90 1018.9
20260506094825 53 91 0.0 0.0 0.00 0.00 0.00 90 1019.0
20260506093822 53 86 0.0 0.0 0.00 0.00 0.00 89 1019.1
20260506092819 54 96 0.0 0.0 0.00 0.00 0.00 89 1019.1
20260506092319 54 82 0.0 0.0 0.00 0.00 0.00 89 1019.1
20260506090814 54 92 0.0 0.0 0.00 0.00 0.00 88 1019.2
20260506090311 54 100 0.0 0.0 0.00 0.00 0.00 88 1019.2
20260506084811 55 96 0.0 0.0 0.00 0.00 0.00 88 1019.1
20260506083811 55 77 0.0 0.0 0.00 0.00 0.00 87 1019.1
20260506082811 55 84 0.0 0.0 0.00 0.00 0.00 88 1019.1
20260506082311 55 89 0.0 0.0 0.00 0.00 0.00 87 1019.1
20260506080809 55 85 0.0 0.0 0.00 0.00 0.00 87 1019.0
20260506072802 56 84 0.0 0.0 0.00 0.00 0.00 84 1018.8
20260506071759 57 87 0.0 0.0 0.00 0.00 0.00 84 1018.6
20260506071300 57 92 0.0 0.0 0.00 0.00 0.00 84 1018.5
20260506061753 58 88 0.0 0.0 0.00 0.00 0.00 80 1017.8
20260506061255 58 94 0.0 0.0 0.00 0.00 0.00 80 1017.7
20260506060253 58 74 0.0 0.0 0.00 0.00 0.00 80 1017.6
20260506050741 59 86 0.0 0.0 0.00 0.00 0.00 77 1017.3
20260506044738 59 89 0.0 0.0 0.00 0.00 0.00 75 1017.1
20260506043735 60 95 0.0 0.0 0.00 0.00 0.00 75 1016.9
20260506042734 60 95 0.0 0.0 0.00 0.00 0.00 74 1016.8
20260506041732 60 92 0.0 0.0 0.00 0.00 0.00 73 1016.7
20260506040729 60 92 0.0 0.0 0.00 0.00 0.00 72 1016.8
20260506035727 61 92 0.0 0.0 0.00 0.00 0.00 71 1016.5
20260506034726 61 92 0.0 0.0 0.00 0.00 0.00 70 1016.5
20260506033726 62 90 0.0 0.0 0.00 0.00 0.00 69 1016.4
20260506032727 62 90 0.0 0.0 0.00 0.00 0.00 68 1016.3
20260506031727 63 90 0.0 0.0 0.00 0.00 0.00 67 1016.1
20260506030725 63 90 0.0 0.0 0.00 0.00 0.00 66 1016.1
20260506030222 64 100 0.0 0.0 0.00 0.00 0.00 65 1015.9
20260506024721 65 83 0.0 0.0 0.00 0.00 0.00 63 1015.7
20260506023719 65 82 0.0 0.0 0.00 0.00 0.00 62 1015.5
20260506022715 66 96 0.0 0.0 0.00 0.00 0.00 61 1015.5
20260506021714 67 85 0.0 0.0 0.00 0.00 0.00 60 1015.4
20260506020712 67 74 0.0 0.0 0.00 0.00 0.00 59 1015.4
20260506020213 68 96 0.0 0.0 0.00 0.00 0.00 58 1015.2
20260506014712 68 111 0.0 0.0 0.00 0.00 0.00 57 1015.2
20260506013712 69 94 0.0 0.0 0.00 0.00 0.00 57 1015.2
20260506012711 70 80 0.0 0.0 0.00 0.00 0.00 55 1015.1
20260506011711 70 86 0.0 0.0 0.00 0.00 0.00 55 1015.1
20260506010711 69 66 0.0 0.0 0.00 0.00 0.00 56 1015.1
20260506005710 69 79 0.0 0.0 0.00 0.00 0.00 56 1015.0
20260506004711 69 63 0.0 0.0 0.00 0.00 0.00 56 1014.9
20260506003711 69 69 0.0 0.0 0.00 0.00 0.00 55 1015.0
20260506003707 70 76 0.0 0.0 0.00 0.00 0.00 55 1015.0
20260506003313 70 80 0.0 0.0 0.00 0.00 0.00 55 1015.0
20260506000705 70 322 0.0 0.0 0.00 0.00 0.00 54 1014.9
20260505235705 70 52 0.0 0.0 0.00 0.00 0.00 54 1014.9
20260505234705 71 64 0.0 0.0 0.00 0.00 0.00 52 1015.1
20260505233705 70 50 0.0 0.0 0.00 0.00 0.00 53 1015.0
20260505232704 70 107 0.0 0.0 0.00 0.00 0.00 53 1015.2
20260505231704 70 25 0.0 0.0 0.00 0.00 0.00 52 1015.2
20260505230701 71 75 0.0 0.0 0.00 0.00 0.00 53 1015.2
20260505225700 70 69 0.0 0.0 0.00 0.00 0.00 52 1015.2
20260505225201 69 95 0.0 0.0 0.00 0.00 0.00 53 1015.3
20260505224158 70 117 0.0 0.0 0.00 0.00 0.00 52 1015.3
20260505222701 71 75 0.0 0.0 0.00 0.00 0.00 52 1015.4
20260505222657 71 91 0.0 0.0 0.00 0.00 0.00 51 1015.3
20260505221153 71 103 0.0 0.0 0.00 0.00 0.00 52 1015.5
20260505215652 71 65 0.0 0.0 0.00 0.00 0.00 51 1015.5
20260505214652 70 286 0.0 0.0 0.00 0.00 0.00 52 1015.6
20260505214149 71 58 0.0 0.0 0.00 0.00 0.00 52 1015.6
20260505213753 70 100 0.0 0.0 0.00 0.00 0.00 53 1015.6
20260505211649 69 27 0.0 0.0 0.00 0.00 0.00 52 1015.6
20260505210649 69 131 0.0 0.0 0.00 0.00 0.00 54 1015.7
20260505210645 68 68 0.0 0.0 0.00 0.00 0.00 55 1015.7
20260505205142 67 315 0.0 0.0 0.00 0.00 0.00 59 1015.7
20260505203638 68 91 0.0 0.0 0.00 0.00 0.00 56 1015.8
20260505202639 69 88 0.0 0.0 0.00 0.00 0.00 56 1015.6
20260505201636 69 83 0.0 0.0 0.00 0.00 0.00 58 1015.9
20260505200636 67 323 0.0 0.0 0.00 0.00 0.00 61 1015.9
20260505195635 67 68 0.0 0.0 0.00 0.00 0.00 61 1016.0